This demonstration page uses our WeatherBlox Daily Observations layout. Learn more.

Left ArrowRight Arrow

Hourly Observations for November 19, 2020

Temp ( °F °C ) Dew Point ( °F °C ) Humidity (%) Winds ( mph kmh ) Pressure ( in mb ) Visibility ( mi km ) Precip ( " mm )
12:15 am 00:15 Clear 39 4 28 -2 65 65 S 15 24 30.33 1027 10 16 N/A
12:35 am 00:35 Clear 39 4 28 -2 65 65 S 12 19 30.32 1027 10 16 N/A
12:55 am 00:55 Clear 39 4 28 -2 65 65 S 12 19 30.32 1027 10 16 N/A
1:15 am 01:15 Clear 39 4 28 -2 65 65 S 10 17 30.31 1026 10 16 N/A
1:35 am 01:35 Clear 39 4 28 -2 65 65 S 10 17 30.31 1026 10 16 N/A
1:55 am 01:55 Clear 39 4 28 -2 65 65 S 12 19 30.31 1026 10 16 N/A
2:15 am 02:15 Clear 39 4 28 -2 65 65 S 13 20 30.31 1026 10 16 N/A
2:35 am 02:35 Clear 39 4 28 -2 65 65 S 12 19 30.30 1026 10 16 N/A
2:55 am 02:55 Clear 39 4 28 -2 65 65 S 12 19 30.31 1026 10 16 N/A
3:15 am 03:15 Clear 39 4 28 -2 65 65 S 13 20 30.30 1026 10 16 N/A
3:35 am 03:35 Clear 39 4 28 -2 65 65 S 13 20 30.30 1026 10 16 N/A
3:55 am 03:55 Clear 39 4 28 -2 65 65 S 13 20 30.30 1026 10 16 N/A
4:15 am 04:15 Clear 39 4 28 -2 65 65 S 10 17 30.30 1026 10 16 N/A
4:35 am 04:35 Clear 39 4 28 -2 65 65 S 12 19 30.30 1026 10 16 N/A
4:55 am 04:55 Clear 39 4 28 -2 65 65 S 10 17 30.30 1026 10 16 N/A
5:15 am 05:15 Clear 39 4 28 -2 65 65 S 10 17 30.30 1026 10 16 N/A
5:35 am 05:35 Clear 39 4 28 -2 65 65 S 10 17 30.30 1026 10 16 N/A
5:55 am 05:55 Clear 41 5 28 -2 61 61 S 10 17 30.30 1026 10 16 N/A
6:15 am 06:15 Clear 39 4 28 -2 65 65 S 10 17 30.30 1026 10 16 N/A
6:35 am 06:35 Clear 39 4 28 -2 65 65 S 12 19 30.30 1026 10 16 N/A
6:55 am 06:55 Clear 39 4 28 -2 65 65 S 10 17 30.29 1026 10 16 N/A
7:15 am 07:15 Clear 41 5 28 -2 61 61 S 12 19 30.29 1026 10 16 N/A
7:35 am 07:35 Sunny 39 4 28 -2 65 65 S 12 19 30.29 1026 10 16 N/A
7:55 am 07:55 Sunny 41 5 28 -2 61 61 S 10 17 30.29 1026 10 16 N/A
8:15 am 08:15 Sunny 43 6 28 -2 57 57 S 12 19 30.28 1026 10 16 N/A
8:35 am 08:35 Sunny 43 6 28 -2 57 57 S 13 20 30.28 1026 10 16 N/A
8:55 am 08:55 Sunny 46 8 30 -1 53 53 S 15 24 30.28 1025 10 16 N/A
9:15 am 09:15 Sunny 48 9 30 -1 50 50 S 17 28 30.27 1025 10 16 N/A
9:35 am 09:35 Sunny 52 11 32 undefined 47 47 S 16 26 30.28 1025 10 16 N/A
9:55 am 09:55 Sunny 52 11 32 undefined 47 47 SSW 18 30 30.28 1025 10 16 N/A
10:15 am 10:15 Sunny 54 12 30 -1 41 41 S 17 28 30.26 1025 10 16 N/A
10:35 am 10:35 Sunny 55 13 32 undefined 41 41 S 20 31 30.26 1025 10 16 N/A
10:55 am 10:55 Sunny 57 14 32 undefined 39 39 S 16 26 30.26 1025 10 16 N/A
11:15 am 11:15 Sunny 59 15 32 undefined 36 36 S 17 28 30.24 1024 10 16 N/A
11:35 am 11:35 Sunny 61 16 32 undefined 34 34 SSW 18 30 30.23 1024 10 16 N/A
11:55 am 11:55 Sunny 61 16 32 undefined 34 34 SSW 16 26 30.22 1023 10 16 N/A
12:15 pm 12:15 Sunny 63 17 34 1 34 34 S 20 31 30.20 1023 10 16 N/A
12:35 pm 12:35 Sunny 61 16 34 1 36 36 SSW 22 35 30.19 1022 10 16 N/A
12:55 pm 12:55 Sunny 63 17 34 1 34 34 SSW 21 33 30.18 1022 10 16 N/A
1:15 pm 13:15 Sunny 63 17 36 2 37 37 S 21 33 30.18 1022 10 16 N/A
1:35 pm 13:35 Sunny 63 17 36 2 37 37 S 18 30 30.17 1022 10 16 N/A
1:55 pm 13:55 Sunny 61 16 36 2 39 39 S 21 33 30.17 1022 10 16 N/A
2:15 pm 14:15 Sunny 63 17 36 2 37 37 SSW 20 31 30.16 1021 10 16 N/A
2:35 pm 14:35 Sunny 63 17 36 2 37 37 SSW 21 33 30.16 1021 10 16 N/A
2:55 pm 14:55 Sunny 63 17 36 2 37 37 S 15 24 30.16 1021 10 16 N/A
3:15 pm 15:15 Sunny 63 17 36 2 37 37 S 16 26 30.16 1021 10 16 N/A
3:35 pm 15:35 Sunny 63 17 37 3 39 39 S 15 24 30.14 1021 10 16 N/A
3:55 pm 15:55 Sunny 64 18 37 3 37 37 S 15 24 30.12 1020 10 16 N/A
4:15 pm 16:15 Sunny 63 17 37 3 39 39 S 16 26 30.13 1020 10 16 N/A
4:35 pm 16:35 Sunny 63 17 37 3 39 39 S 16 26 30.13 1020 10 16 N/A
4:55 pm 16:55 Sunny 63 17 36 2 37 37 S 20 31 30.13 1020 10 16 N/A
5:15 pm 17:15 Sunny 61 16 36 2 39 39 S 15 24 30.13 1020 10 16 N/A
5:35 pm 17:35 Clear 59 15 36 2 42 42 S 17 28 30.13 1020 10 16 N/A
5:55 pm 17:55 Clear 59 15 34 1 39 39 S 16 26 30.13 1020 10 16 N/A
6:15 pm 18:15 Clear 57 14 36 2 44 44 S 15 24 30.14 1021 10 16 N/A
6:35 pm 18:35 Clear 55 13 36 2 47 47 S 15 24 30.14 1021 10 16 N/A
6:55 pm 18:55 Clear 55 13 34 1 44 44 S 17 28 30.14 1021 10 16 N/A
7:15 pm 19:15 Clear 57 14 34 1 41 41 S 17 28 30.14 1021 10 16 N/A
7:35 pm 19:35 Clear 55 13 34 1 44 44 S 16 26 30.15 1021 10 16 N/A
7:55 pm 19:55 Clear 55 13 36 2 47 47 S 16 26 30.14 1021 10 16 N/A
8:15 pm 20:15 Clear 55 13 36 2 47 47 S 16 26 30.15 1021 10 16 N/A
8:35 pm 20:35 Clear 55 13 34 1 44 44 S 12 19 30.17 1022 10 16 N/A
8:55 pm 20:55 Clear 55 13 34 1 44 44 S 15 24 30.16 1021 10 16 N/A
9:15 pm 21:15 Clear 55 13 34 1 44 44 S 14 22 30.17 1022 10 16 N/A
9:35 pm 21:35 Clear 55 13 34 1 44 44 S 15 24 30.17 1022 10 16 N/A
9:55 pm 21:55 Clear 55 13 34 1 44 44 S 13 20 30.18 1022 10 16 N/A
10:15 pm 22:15 Clear 55 13 34 1 44 44 S 10 17 30.18 1022 10 16 N/A
10:35 pm 22:35 Clear 57 14 34 1 41 41 SSW 13 20 30.19 1022 10 16 N/A
10:55 pm 22:55 Clear 57 14 34 1 41 41 SSW 14 22 30.19 1022 10 16 N/A
11:15 pm 23:15 Clear 57 14 34 1 41 41 SSW 15 24 30.20 1023 10 16 N/A
11:35 pm 23:35 Clear 57 14 34 1 41 41 SSW 12 19 30.20 1023 10 16 N/A
11:55 pm 23:55 Clear 55 13 34 1 44 44 S 13 20 30.20 1023 10 16 N/A

Powered by AerisWeather